STARLINK-35698, 66481

Orbit data source: Space-Track

STARLINK-35698, 66481 is a payload satellite owned by SpaceX/Seattle (US) in LEO that was launched on Sat, 15 Nov 2025 UTC via an FALCON 9 launch vehicle from the Air Force Eastern Test Range (AFETR). Payload-class satellites include a variety of spacecraft equipped with specific instruments for various scientific and technological missions. These include communications satellites like Starlink; space stations such as the ISS; scientific satellites like the Hubble; Earth observation satellites from companies like Planet Labs, Umbra, and HawkEye 360; GPS; miniature CubeSats for education and research; and military/defense satellites.

Loading next visibility...
Identifier
66481, 2025-262AB
Orbit
LEO
Country
Flag of USUS
Related business
Manufacturer
SpaceX/Seattle
Mission
Operational Commercial Communications
Bus & Motor
STARLINK V2MO, Unknown motor
Mass
575 kg wet, ~530 kg dry
Launch date (UTC)
2025-11-15 (7 months ago)
Launch vehicle
FALCON 9
Launch site
Air Force Eastern Test Range (AFETR)
Object type
Payload
Rocket body
Debris
Shape & HBR
Box + 2 Pan, 17.7 m
Radar Cross Section
36.964 m², Large (>1 m²)

Expand to show TLE details & history
Last TLE update: 1 day ago

TLE from 1 day ago
0 STARLINK-35698
1 66481U 25262AB  26170.45109260  .00012798  00000-0  47343-3 0  9996
2 66481  42.9999  81.1126 0001463 261.4722  98.5964 15.27604714 34472
Epoch: 2026-06-19T10:49Z
TLE epoch observation values (Epoch: 2026-06-19T10:49:34.400Z)
Latitude
-0.00002°
Longitude
11.03937°
Altitude
482.901 km
Speed
7.626 km/s
True Right ascension
05h 24m 27s
True Declination
0° 00' 00"
Sunlit
Object was in daylight at epoch
Visualization orbit readout
Latitude
Unknown
Longitude
Unknown
Altitude
Unknown
Speed
Unknown
Apparent Right ascension
Unknown
Apparent Declination
Unknown
Sunlit
N/A
Visualization observer readout
Local Sidereal Time
07:18:28
Azimuth
Unknown
Elevation
Unknown
Doppler factor
Unknown
Orbital elements
Apogee altitude
485.924 km
Perigee altitude
483.916 km
Semi-major axis
6,863.057 km
Eccentricity
0.00015
Inclination
42.9999°
RAAN
81.1126°
Arg. of periapsis
261.4722°
True anomaly
98.61298°
Mean anomaly
98.5964°
Eccentric anomaly
98.60469°
Mean motion
3.81739 °/min
Orbital period
94.31 mins
BSTAR
0.00047343
Loading maneuver chart data...
Computing Atmospheric mass density...
Loading historical data...
Loading historical data...
Loading historical data...
Loading historical data...
Loading historical data...
Loading historical data...
Loading historical data...

Documentation

Showing up to 5 results
|